This is the latest recevied weather packets stored in our database for station/object KB3AWQ. If no packets are shown the sender has not sent any weather packets the latest 10 day(s).
| Time | Temp. | Humidity | Pressure | Rain* | Wind** | Luminosity | Snow |
|---|---|---|---|---|---|---|---|
| 1777821866 | 11.67° C | 47% | 1014.7 hPa | 0 mm | - | 486 W/m² | - |
| 1777821567 | 11.67° C | 46% | 1014.8 hPa | 0 mm | - | 499 W/m² | - |
| 1777821268 | 11.11° C | 47% | 1014.9 hPa | 0 mm | - | 304 W/m² | - |
| 1777820966 | 10.56° C | 50% | 1014.8 hPa | 0 mm | - | 1076 W/m² | - |
| 1777820666 | 11.11° C | 48% | 1014.8 hPa | 0 mm | - | 274 W/m² | - |
| 1777820367 | 11.11° C | 47% | 1014.8 hPa | 0 mm | - | 274 W/m² | - |
| 1777820066 | 11.11° C | 47% | 1014.8 hPa | 0 mm | - | 278 W/m² | - |
| 1777819767 | 11.67° C | 47% | 1014.8 hPa | 0 mm | - | 719 W/m² | - |
| 1777819466 | 11.11° C | 47% | 1014.9 hPa | 0 mm | - | 692 W/m² | - |
| 1777819166 | 11.67° C | 47% | 1014.9 hPa | 0 mm | - | 263 W/m² | - |
| 1777818866 | 11.67° C | 47% | 1015 hPa | 0 mm | - | 282 W/m² | - |
| 1777818568 | 11.11° C | 46% | 1015 hPa | 0 mm | - | 808 W/m² | - |
| 1777818266 | 11.11° C | 47% | 1015 hPa | 0 mm | - | 402 W/m² | - |
| 1777817966 | 11.11° C | 48% | 1015.1 hPa | 0 mm | - | 544 W/m² | - |
| 1777817666 | 10.56° C | 50% | 1015.1 hPa | 0 mm | - | 601 W/m² | - |
| 1777817366 | 10.56° C | 51% | 1015.1 hPa | 0 mm | - | 409 W/m² | - |
| 1777817066 | 10.56° C | 52% | 1015.2 hPa | 0 mm | - | 724 W/m² | - |
| 1777816767 | 10.56° C | 52% | 1015.3 hPa | 0 mm | - | 413 W/m² | - |
| 1777816467 | 10° C | 51% | 1015.3 hPa | 0 mm | - | 553 W/m² | - |
| 1777816167 | 10° C | 53% | 1015.3 hPa | 0 mm | - | 650 W/m² | - |
| 1777815866 | 10° C | 51% | 1015.3 hPa | 0 mm | - | 493 W/m² | - |
| 1777815567 | 9.44° C | 50% | 1015.3 hPa | 0 mm | - | 617 W/m² | - |
| 1777815266 | 10° C | 51% | 1015.3 hPa | 0 mm | - | 595 W/m² | - |
| 1777814966 | 9.44° C | 52% | 1015.3 hPa | 0 mm | - | 576 W/m² | - |
| 1777814666 | 9.44° C | 52% | 1015.3 hPa | 0 mm | - | 557 W/m² | - |
* Rain latest hour (hover to see other rain measurements)
** Current wind speed in m/s (hover to see current wind gust speed)